Weather History for KAXS - October, 2012

Change the Weather History Date:

Saturday, October 6, 2012

  Actual Average (KLTS) Record (KLTS)
Temperature  
Mean Temperature 47 °F -  
Max Temperature 50 °F 77 °F 91 °F (2007)
Min Temperature 44 °F 55 °F 45 °F (2012)
Degree Days  
Heating Degree Days 18    
Moisture  
Dew Point 32 °F    
Average Humidity 53    
Maximum Humidity 62    
Minimum Humidity 43    
Precipitation  
Precipitation 0.00 in - - ()
Sea Level Pressure  
Sea Level Pressure 30.28 in    
Wind  
Wind Speed 14 mph (NE)    
Max Wind Speed 18 mph    
Max Gust Speed 25 mph    
Visibility 10 miles    
Events      
Averages and records for this station are not official NWS values.
T = Trace of Precipitation, MM = Missing Value Source: NWS Daily Summary

Daily Weather History Graph

Daily Weather History Graph

Search for Another Location

Airport or City:

Trip Planner

Search our weather history database for the weather conditions in past years. The results will help you decide how hot, cold, wet, or windy it might be!

Date:

Astronomy

Oct. 06, 2012 Rise Set
Actual Time 7:36 AM CDT 7:13 PM CDT
Civil Twilight 7:11 AM CDT 7:38 PM CDT
Nautical Twilight 6:41 AM CDT 8:08 PM CDT
Astronomical Twilight 6:12 AM CDT 8:37 PM CDT
Moon 11:41 PM CDT (10/6) 1:21 PM CDT (10/6)
Length of Visible Light 12h 27m
Length of Day
11h 37m
Waning Gibbous, 65% of the Moon is Illuminated
Oct 6
Waning Gibbous
Oct 8
Last Quarter
Oct 15
New
Oct 21
First Quarter
Oct 29
Full

Hourly Weather History & Observations

Time (CDT) Temp. Windchill Dew Point Humidity Pressure Visibility Wind Dir Wind Speed Gust Speed Precip Events Conditions
12:15 AM 50.0 °F - 35.6 °F 58% 30.24 in 10.0 mi NE 12.7 mph - N/A   Clear
12:35 AM 50.0 °F - 35.6 °F 58% 30.24 in 10.0 mi NE 13.8 mph - N/A   Clear
12:55 AM 50.0 °F - 33.8 °F 54% 30.24 in 10.0 mi NE 13.8 mph - N/A   Clear
1:15 AM 50.0 °F - 33.8 °F 54% 30.24 in 10.0 mi NE 16.1 mph - N/A   Clear
1:35 AM 50.0 °F - 33.8 °F 54% 30.24 in 10.0 mi NE 15.0 mph 20.7 mph N/A   Clear
1:55 AM 48.2 °F - 33.8 °F 58% 30.25 in 10.0 mi NE 16.1 mph 20.7 mph N/A   Clear
2:15 AM 48.2 °F - 32.0 °F 54% 30.25 in 10.0 mi NE 13.8 mph - N/A   Clear
2:35 AM 48.2 °F - 32.0 °F 54% 30.26 in 10.0 mi NNE 15.0 mph - N/A   Scattered Clouds
2:55 AM 48.2 °F - 32.0 °F 54% 30.25 in 10.0 mi NE 15.0 mph 21.9 mph N/A   Scattered Clouds
3:15 AM 48.2 °F - 32.0 °F 54% 30.24 in 10.0 mi NNE 16.1 mph 25.3 mph N/A   Mostly Cloudy
3:35 AM 48.2 °F - 32.0 °F 54% 30.25 in 10.0 mi ENE 16.1 mph 24.2 mph N/A   Scattered Clouds
4:15 AM 48.2 °F - 32.0 °F 54% 30.25 in 10.0 mi ENE 15.0 mph 21.9 mph N/A   Overcast
4:35 AM 46.4 °F 40.4 °F 32.0 °F 57% 30.26 in 10.0 mi ENE 13.8 mph 20.7 mph N/A   Overcast
4:55 AM 46.4 °F 41.1 °F 32.0 °F 57% 30.27 in 10.0 mi ENE 11.5 mph - N/A   Overcast
5:15 AM 46.4 °F 39.8 °F 32.0 °F 57% 30.28 in 10.0 mi ENE 16.1 mph - N/A   Overcast
5:35 AM 46.4 °F 41.5 °F 32.0 °F 57% 30.28 in 10.0 mi ENE 10.4 mph - N/A   Overcast
5:55 AM 46.4 °F 40.4 °F 32.0 °F 57% 30.28 in 10.0 mi ENE 13.8 mph 18.4 mph N/A   Overcast
6:15 AM 46.4 °F 41.1 °F 33.8 °F 62% 30.27 in 10.0 mi NE 11.5 mph - N/A   Overcast
6:35 AM 46.4 °F 41.1 °F 33.8 °F 62% 30.28 in 10.0 mi NE 11.5 mph - N/A   Overcast
6:55 AM 46.4 °F 42.4 °F 33.8 °F 62% 30.28 in 10.0 mi NE 8.1 mph - N/A   Overcast
7:15 AM 46.4 °F 41.9 °F 33.8 °F 62% 30.28 in 10.0 mi ENE 9.2 mph - N/A   Overcast
7:35 AM 46.4 °F 41.9 °F 33.8 °F 62% 30.29 in 10.0 mi NE 9.2 mph - N/A   Overcast
7:55 AM 46.4 °F 42.4 °F 33.8 °F 62% 30.29 in 10.0 mi NE 8.1 mph - N/A   Overcast
8:15 AM 46.4 °F 41.9 °F 33.8 °F 62% 30.29 in 10.0 mi NNE 9.2 mph - N/A   Overcast
8:35 AM 46.4 °F 42.4 °F 33.8 °F 62% 30.29 in 10.0 mi NE 8.1 mph - N/A   Mostly Cloudy
8:55 AM 46.4 °F 41.5 °F 33.8 °F 62% 30.29 in 10.0 mi NE 10.4 mph - N/A   Scattered Clouds
9:15 AM 46.4 °F 41.1 °F 33.8 °F 62% 30.30 in 10.0 mi NE 11.5 mph - N/A   Clear
9:35 AM 46.4 °F 41.5 °F 33.8 °F 62% 30.31 in 10.0 mi NE 10.4 mph - N/A   Scattered Clouds
9:55 AM 46.4 °F 40.7 °F 33.8 °F 62% 30.31 in 10.0 mi NE 12.7 mph - N/A   Scattered Clouds
10:15 AM 48.2 °F - 32.0 °F 54% 30.31 in 10.0 mi NE 15.0 mph 21.9 mph N/A   Scattered Clouds
10:35 AM 46.4 °F 40.7 °F 32.0 °F 57% 30.31 in 10.0 mi NNE 12.7 mph - N/A   Mostly Cloudy
10:55 AM 46.4 °F 40.1 °F 32.0 °F 57% 30.31 in 10.0 mi NE 15.0 mph - N/A   Overcast
11:15 AM 46.4 °F 39.8 °F 32.0 °F 57% 30.29 in 10.0 mi NE 16.1 mph - N/A   Mostly Cloudy
11:35 AM 50.0 °F - 32.0 °F 50% 30.29 in 10.0 mi NE 16.1 mph - N/A   Scattered Clouds
11:55 AM 50.0 °F - 32.0 °F 50% 30.29 in 10.0 mi NNE 15.0 mph - N/A   Scattered Clouds
12:15 PM 50.0 °F - 32.0 °F 50% 30.28 in 10.0 mi NE 16.1 mph - N/A   Mostly Cloudy
12:35 PM 50.0 °F - 32.0 °F 50% 30.28 in 10.0 mi NE 18.4 mph - N/A   Mostly Cloudy
12:55 PM 50.0 °F - 32.0 °F 50% 30.29 in 10.0 mi NNE 15.0 mph - N/A   Mostly Cloudy
1:15 PM 50.0 °F - 30.2 °F 47% 30.29 in 10.0 mi NNE 13.8 mph 21.9 mph N/A   Mostly Cloudy
1:35 PM 50.0 °F - 30.2 °F 47% 30.28 in 10.0 mi NE 17.3 mph 21.9 mph N/A   Overcast
1:55 PM 50.0 °F - 30.2 °F 47% 30.28 in 10.0 mi NE 18.4 mph - N/A   Overcast
2:15 PM 50.0 °F - 28.4 °F 43% 30.27 in 10.0 mi NE 16.1 mph 21.9 mph N/A   Overcast
2:35 PM 50.0 °F - 28.4 °F 43% 30.26 in 10.0 mi NE 13.8 mph 20.7 mph N/A   Mostly Cloudy
2:55 PM 50.0 °F - 28.4 °F 43% 30.25 in 10.0 mi NE 18.4 mph 25.3 mph N/A   Scattered Clouds
3:15 PM 50.0 °F - 30.2 °F 47% 30.25 in 10.0 mi NNE 17.3 mph 20.7 mph N/A   Scattered Clouds
3:35 PM 50.0 °F - 30.2 °F 47% 30.25 in 10.0 mi NNE 15.0 mph - N/A   Mostly Cloudy
3:55 PM 50.0 °F - 30.2 °F 47% 30.26 in 10.0 mi NE 18.4 mph - N/A   Mostly Cloudy
4:15 PM 50.0 °F - 30.2 °F 47% 30.25 in 10.0 mi NE 18.4 mph 21.9 mph N/A   Mostly Cloudy
4:35 PM 50.0 °F - 30.2 °F 47% 30.25 in 10.0 mi NE 18.4 mph - N/A   Mostly Cloudy
4:55 PM 50.0 °F - 30.2 °F 47% 30.24 in 10.0 mi NE 17.3 mph - N/A   Scattered Clouds
5:15 PM 50.0 °F - 28.4 °F 43% 30.25 in 10.0 mi NE 16.1 mph 24.2 mph N/A   Mostly Cloudy
5:35 PM 50.0 °F - 28.4 °F 43% 30.25 in 10.0 mi NE 18.4 mph - N/A   Mostly Cloudy
5:55 PM 50.0 °F - 28.4 °F 43% 30.26 in 10.0 mi NE 18.4 mph 23.0 mph N/A   Scattered Clouds
6:15 PM 50.0 °F - 28.4 °F 43% 30.26 in 10.0 mi NE 17.3 mph - N/A   Mostly Cloudy
6:35 PM 48.2 °F - 28.4 °F 46% 30.27 in 10.0 mi NE 16.1 mph - N/A   Mostly Cloudy
6:55 PM 48.2 °F - 28.4 °F 46% 30.28 in 10.0 mi NE 15.0 mph - N/A   Mostly Cloudy
7:15 PM 48.2 °F - 30.2 °F 50% 30.29 in 10.0 mi ENE 10.4 mph 16.1 mph N/A   Mostly Cloudy
7:35 PM 48.2 °F - 30.2 °F 50% 30.29 in 10.0 mi NE 15.0 mph - N/A   Mostly Cloudy
7:55 PM 48.2 °F - 30.2 °F 50% 30.29 in 10.0 mi ENE 12.7 mph 16.1 mph N/A   Overcast
8:15 PM 48.2 °F - 30.2 °F 50% 30.31 in 10.0 mi NE 10.4 mph - N/A   Mostly Cloudy
8:35 PM 48.2 °F - 30.2 °F 50% 30.32 in 10.0 mi NE 12.7 mph 17.3 mph N/A   Mostly Cloudy
8:55 PM 48.2 °F - 30.2 °F 50% 30.32 in 10.0 mi NE 10.4 mph - N/A   Mostly Cloudy
9:15 PM 46.4 °F 42.4 °F 30.2 °F 53% 30.33 in 10.0 mi NE 8.1 mph - N/A   Overcast
9:35 PM 46.4 °F 41.9 °F 32.0 °F 57% 30.34 in 10.0 mi NE 9.2 mph - N/A   Mostly Cloudy
9:55 PM 46.4 °F 41.5 °F 30.2 °F 53% 30.34 in 10.0 mi NE 10.4 mph - N/A   Scattered Clouds
10:15 PM 46.4 °F 41.9 °F 32.0 °F 57% 30.35 in 10.0 mi NE 9.2 mph - N/A   Mostly Cloudy
10:35 PM 46.4 °F 41.1 °F 32.0 °F 57% 30.36 in 10.0 mi NE 11.5 mph - N/A   Overcast
10:55 PM 46.4 °F 41.9 °F 32.0 °F 57% 30.35 in 10.0 mi NE 9.2 mph - N/A   Overcast
11:15 PM 46.4 °F 42.4 °F 32.0 °F 57% 30.36 in 10.0 mi NE 8.1 mph - N/A   Mostly Cloudy
11:35 PM 44.6 °F 40.2 °F 32.0 °F 61% 30.36 in 10.0 mi NE 8.1 mph - N/A   Scattered Clouds
11:55 PM 44.6 °F 40.7 °F 32.0 °F 61% 30.36 in 10.0 mi NNE 6.9 mph - N/A   Mostly Cloudy